Temp
75 78 82 83 73 70 67 69 72 75 77 83 84 83 83 86 81 77 90 90 90 87 86 84 80 80 81 80 80 79 79 79 79 79 79 79 79 79 79 79 79 80 81 81 81 81 81 81 80
77 78 82 76 68 63 68 69 71 74 78 82 85 84 83 82 91 93 91 90 90 85 86 87 80 80 80 80 79 79 79 79 79 79 79 79 79 79 79 79 79 80 81 81 81 81 81 81 80
76 76 78 73 65 64 67 68 71 77 80 80 81 86 84 80 85 86 91 89 89 86 85 86 80 80 80 80 79 79 79 79 79 79 79 79 79 79 79 79 79 80 81 81 81 80 80 80 80
78 79 72 66 63 65 66 69 71 75 81 81 80 78 86 87 85 89 89 89 88 87 87 82 79 79 79 79 79 79 79 79 79 79 79 79 79 78 78 79 79 80 81 81 80 79 79 79 79
76 73 65 60 59 62 66 69 72 73 75 78 79 77 80 85 90 88 86 87 88 88 87 83 79 79 79 79 79 79 78 78 78 79 79 79 78 78 78 79 79 80 81 80 80 79 78 78 78
69 70 61 58 58 62 67 71 72 72 76 78 78 77 80 88 85 85 87 87 89 88 87 85 80 79 79 79 79 78 78 78 78 78 78 78 78 78 78 78 79 79 79 79 79 78 78 78 77
67 65 58 56 58 62 66 72 70 70 73 75 80 74 82 86 84 85 85 86 87 86 87 85 85 82 79 78 78 78 78 78 78 77 78 78 78 78 78 78 78 78 78 78 78 78 77 77 77
69 67 55 56 57 60 68 70 72 72 71 81 82 74 75 82 82 85 84 84 83 85 86 84 84 87 86 84 78 78 78 77 77 77 77 77 78 77 77 77 77 78 78 78 77 77 77 77 77
67 61 54 56 57 62 69 67 72 76 73 76 80 80 84 85 84 82 79 80 79 79 82 83 82 82 86 87 82 78 78 77 77 78 77 78 86 84 82 80 77 78 77 77 77 77 77 77 77
66 60 56 62 63 62 66 65 69 69 71 72 77 83 85 84 81 80 77 74 74 74 78 82 81 80 85 86 84 84 84 85 84 84 83 86 84 84 85 81 77 77 77 77 77 77 77 78 89
61 59 61 62 64 65 64 66 69 67 67 72 72 78 82 82 80 78 78 77 72 73 78 81 79 79 84 85 84 84 84 83 82 82 82 83 79 83 85 85 85 84 80 86 84 84 87 84 87
59 61 63 64 65 62 63 66 66 68 70 76 77 78 78 80 79 78 78 77 75 73 75 78 80 79 82 84 85 83 84 82 83 83 81 79 77 81 82 85 85 83 86 84 84 86 84 84 85
59 61 63 65 64 63 65 63 65 67 74 77 77 77 78 79 80 82 76 76 76 74 78 80 77 78 78 78 80 80 82 82 83 82 81 81 82 81 83 82 84 84 85 84 83 84 84 85 85
62 61 62 63 64 63 60 63 62 68 74 72 73 73 77 78 80 81 78 74 73 75 75 80 79 78 77 77 78 78 81 82 82 83 82 81 82 81 82 81 82 83 84 85 84 84 84 85 85
62 57 60 61 62 61 62 59 59 70 70 68 70 72 74 77 79 79 82 80 76 75 75 77 79 79 77 77 77 79 81 82 81 81 79 80 80 80 81 82 82 83 83 81 82 82 83 83 83
57 55 51 61 62 63 61 54 62 69 67 66 68 71 72 74 77 80 81 81 79 75 73 77 79 78 78 78 78 77 77 78 80 80 81 80 79 80 79 81 82 84 83 84 84 83 82 82 81
53 48 50 53 62 60 59 55 63 69 67 64 67 69 71 73 76 78 80 80 80 77 74 74 78 78 78 77 77 75 74 75 77 80 80 79 79 80 81 81 83 81 83 83 81 81 80 80 79
48 49 51 50 58 59 56 55 62 65 65 65 67 68 70 72 74 78 78 81 80 78 76 76 77 78 77 77 74 73 74 75 77 78 80 78 80 80 79 80 80 81 80 80 81 78 78 76 75
53 50 49 54 59 56 54 55 59 64 65 64 66 68 69 71 77 78 78 78 78 78 76 75 74 74 73 73 72 72 73 73 75 77 78 78 80 80 79 81 79 78 80 79 77 76 74 74 74
53 50 49 55 58 56 54 54 60 63 63 66 66 68 69 71 73 76 77 77 77 76 77 75 74 72 72 77 75 73 72 75 76 81 79 79 80 79 80 79 77 78 79 75 75 75 75 72 69
53 49 49 49 54 56 53 52 56 62 64 66 67 69 70 70 71 74 75 76 78 76 77 75 75 74 74 75 76 72 74 74 77 79 78 79 80 80 79 77 77 75 76 73 72 74 73 73 69
47 56 52 49 47 42 53 41 53 58 60 63 65 67 68 70 71 73 74 75 77 77 79 77 76 75 74 75 74 73 70 71 76 76 79 79 80 79 77 76 75 74 71 70 68 71 73 68 68
49 54 50 50 48 48 48 41 52 55 56 61 64 66 68 69 70 73 75 76 78 79 78 77 76 74 74 74 75 76 74 75 75 75 73 73 75 76 75 74 72 68 69 65 67 65 66 67 71
54 50 50 51 46 37 47 44 49 54 57 61 64 66 67 67 70 72 74 75 75 79 78 77 73 70 72 71 75 74 73 72 70 69 68 68 67 67 69 70 68 66 64 66 63 64 62 64 65
52 45 34 34 33 36 45 43 48 56 61 63 63 66 66 68 70 71 72 75 75 76 75 75 75 70 70 70 74 74 70 72 69 69 68 66 65 64 62 61 60 62 61 61 61 60 61 63 65
46 43 36 27 32 38 46 38 50 60 64 64 64 64 65 65 68 69 71 72 75 75 74 75 73 70 69 71 74 74 74 70 70 69 68 67 66 65 64 61 60 58 60 59 59 61 63 64 63
45 39 47 33 38 32 42 47 54 60 61 60 60 64 64 65 67 68 70 72 72 72 74 74 74 70 70 74 75 74 72 70 68 69 69 68 67 66 64 63 59 58 59 59 60 61 59 59 59
50 51 36 37 28 28 40 42 45 54 57 59 59 61 63 64 67 69 70 70 70 70 72 73 74 72 70 72 73 71 72 71 72 70 68 67 66 64 63 62 61 59 59 59 59 59 59 59 60
44 41 43 40 38 32 33 42 54 55 57 57 60 61 63 64 66 67 70 71 71 71 72 71 73 71 69 70 72 72 70 72 73 70 67 66 63 64 64 62 61 60 60 60 59 59 59 58 58
48 45 44 32 32 34 35 36 57 58 58 58 59 61 63 63 64 67 69 70 69 71 71 70 72 70 70 70 70 69 71 70 68 66 64 63 63 65 62 65 64 61 61 61 61 60 60 59 57
MSLP
1011.12 1010.89 1010.68 1010.02 1009.95 1009.04 1007.55 1007.23 1007.13 1006.22 1005.73 1005.54 1005.53 1004.86 1004.48 1004.11 1003.86 1003.63 1003.79 1004.03 1004.16 1005.58 1006.22 1006.92 1006.45 1006.75 1007.24 1007.85 1008.21 1008.28 1008.58 1009.15 1009.55 1010.07 1010.58 1010.98 1011.10 1011.45 1011.84 1012.45 1012.87 1013.28 1013.68 1013.93 1014.11 1014.31 1014.47 1014.54 1014.61
1011.08 1010.87 1010.52 1010.09 1009.45 1008.50 1007.58 1007.60 1006.99 1006.82 1006.58 1006.08 1005.28 1004.98 1004.64 1003.97 1004.03 1003.87 1004.18 1004.58 1004.40 1004.94 1006.36 1006.77 1006.93 1007.03 1007.31 1007.94 1008.36 1008.45 1008.87 1009.40 1009.77 1010.15 1010.53 1010.97 1011.23 1011.66 1012.08 1012.43 1012.91 1013.35 1013.62 1014.00 1014.25 1014.49 1014.63 1014.73 1014.77
1011.20 1011.03 1010.30 1009.95 1009.64 1008.46 1007.62 1007.81 1007.66 1007.15 1006.76 1006.23 1005.40 1005.12 1004.91 1005.17 1005.31 1005.30 1005.35 1005.34 1005.35 1004.97 1006.24 1007.03 1007.34 1007.48 1007.51 1008.18 1008.56 1008.73 1009.03 1009.50 1010.05 1010.43 1010.85 1011.14 1011.46 1011.92 1012.20 1012.60 1012.98 1013.40 1013.83 1014.06 1014.30 1014.57 1014.78 1014.90 1014.98
1011.00 1010.76 1011.36 1010.52 1009.50 1009.28 1008.69 1008.56 1008.47 1007.53 1006.72 1006.65 1006.43 1005.55 1005.52 1006.32 1006.43 1005.77 1005.51 1005.34 1005.67 1005.80 1005.73 1007.13 1007.58 1007.80 1007.83 1008.40 1008.66 1008.95 1009.15 1009.70 1010.20 1010.74 1011.10 1011.41 1011.66 1012.10 1012.64 1012.90 1013.23 1013.61 1013.96 1014.31 1014.43 1014.65 1014.90 1015.06 1015.16
1011.33 1011.06 1010.66 1010.50 1010.07 1009.86 1009.57 1009.43 1008.80 1007.94 1007.29 1006.88 1006.76 1005.91 1005.96 1006.27 1006.27 1006.00 1005.89 1005.69 1005.81 1006.30 1005.62 1006.97 1007.49 1007.82 1008.16 1008.61 1009.01 1009.27 1009.47 1009.82 1010.38 1010.90 1011.34 1011.71 1012.13 1012.48 1012.87 1013.30 1013.52 1013.77 1014.11 1014.40 1014.71 1014.88 1015.07 1015.21 1015.27
1011.22 1011.42 1010.84 1010.44 1010.31 1010.27 1010.10 1009.77 1009.17 1008.47 1007.71 1007.16 1006.76 1006.46 1006.23 1006.66 1006.41 1006.50 1006.36 1006.13 1006.21 1006.48 1006.64 1007.09 1007.68 1007.97 1008.34 1008.85 1009.18 1009.45 1009.81 1010.20 1010.62 1011.10 1011.54 1011.99 1012.24 1012.78 1013.09 1013.46 1013.80 1014.02 1014.25 1014.51 1014.72 1014.95 1015.10 1015.17 1015.31
1011.03 1011.19 1011.09 1011.01 1010.59 1010.26 1010.12 1010.06 1009.48 1008.94 1008.29 1007.41 1007.33 1006.68 1006.44 1006.49 1006.97 1006.81 1006.74 1006.77 1006.76 1006.95 1007.07 1007.50 1008.08 1008.40 1008.68 1009.12 1009.55 1009.87 1010.12 1010.62 1011.04 1011.38 1011.84 1012.20 1012.46 1012.95 1013.33 1013.74 1014.03 1014.30 1014.54 1014.75 1014.87 1014.96 1015.06 1015.07 1015.19
1011.81 1011.58 1011.68 1011.65 1011.11 1010.62 1010.38 1010.26 1009.89 1009.51 1008.75 1008.27 1007.55 1006.68 1006.45 1006.93 1007.31 1006.97 1006.82 1007.06 1007.17 1007.23 1007.38 1007.60 1008.26 1008.37 1008.95 1009.45 1009.72 1010.04 1010.33 1010.69 1011.34 1011.84 1012.33 1012.65 1012.89 1013.17 1013.62 1013.89 1014.17 1014.40 1014.58 1014.75 1014.94 1014.99 1014.98 1014.95 1014.95
1012.33 1011.94 1011.80 1011.74 1011.47 1010.89 1010.92 1010.23 1009.82 1009.51 1009.11 1008.58 1007.76 1007.27 1007.06 1007.15 1007.22 1007.18 1007.28 1007.40 1007.51 1007.59 1007.72 1007.83 1008.21 1008.65 1008.91 1009.51 1010.27 1010.59 1010.75 1011.14 1011.56 1012.06 1012.67 1013.08 1012.99 1013.34 1013.73 1013.82 1014.23 1014.43 1014.50 1014.76 1014.84 1014.95 1014.87 1014.86 1014.82
1012.16 1012.10 1012.12 1012.26 1012.10 1011.75 1011.54 1011.01 1010.26 1009.64 1008.97 1008.52 1007.62 1007.11 1007.15 1007.16 1007.24 1007.12 1007.31 1007.33 1007.89 1007.98 1007.89 1007.91 1008.22 1008.58 1008.97 1009.58 1010.07 1010.47 1010.94 1011.12 1011.34 1011.80 1012.38 1012.77 1013.22 1013.32 1013.52 1013.98 1014.38 1014.57 1014.52 1014.74 1014.91 1014.92 1014.80 1014.54 1013.92
1012.68 1012.26 1012.54 1012.60 1012.52 1012.33 1011.82 1011.31 1010.79 1009.81 1008.73 1008.44 1008.11 1007.38 1007.18 1007.19 1007.18 1007.26 1007.24 1007.46 1007.49 1008.06 1007.96 1007.96 1008.31 1008.59 1009.03 1009.32 1010.05 1010.56 1010.99 1011.44 1011.72 1011.92 1012.03 1012.54 1013.29 1013.33 1013.52 1013.71 1013.89 1014.19 1014.45 1014.15 1014.47 1014.46 1014.25 1013.92 1013.67
1012.63 1012.73 1012.61 1012.49 1012.44 1012.39 1011.72 1011.42 1010.50 1009.80 1009.03 1008.67 1008.36 1008.18 1007.60 1007.12 1007.05 1007.11 1007.17 1007.37 1007.49 1007.52 1007.61 1007.93 1008.25 1008.66 1009.08 1009.22 1009.84 1010.43 1010.83 1011.47 1011.74 1012.02 1012.22 1012.63 1013.20 1013.16 1013.29 1013.40 1013.69 1014.07 1014.05 1014.25 1014.29 1013.96 1014.07 1013.81 1013.61
1012.56 1012.65 1012.60 1012.43 1012.20 1012.06 1011.62 1011.02 1010.37 1009.59 1008.85 1008.51 1008.20 1007.89 1007.59 1007.05 1006.97 1006.81 1007.12 1007.34 1007.51 1007.44 1007.17 1007.10 1007.89 1008.45 1008.95 1009.37 1009.85 1010.42 1010.77 1011.15 1011.63 1012.09 1012.39 1012.44 1012.71 1013.10 1013.27 1013.50 1013.65 1013.84 1014.04 1014.07 1014.05 1013.92 1013.86 1013.62 1013.53
1012.63 1012.61 1012.37 1012.04 1011.73 1011.52 1011.23 1010.61 1010.40 1009.26 1008.73 1008.34 1008.06 1007.74 1007.36 1006.96 1006.55 1006.53 1006.69 1006.84 1007.23 1007.27 1007.16 1006.99 1007.02 1007.82 1008.53 1008.97 1009.48 1010.03 1010.64 1010.73 1011.31 1011.68 1012.07 1012.35 1012.50 1012.89 1013.17 1013.59 1013.71 1013.84 1013.87 1013.86 1013.85 1013.79 1013.86 1013.72 1013.59
1012.52 1012.26 1011.93 1011.69 1011.53 1011.20 1011.05 1010.01 1009.51 1008.99 1009.02 1008.46 1007.96 1007.65 1007.25 1006.67 1006.26 1006.00 1005.90 1006.13 1006.54 1006.73 1007.04 1006.69 1006.72 1007.12 1007.77 1008.41 1008.92 1009.44 1010.01 1010.71 1011.05 1011.44 1012.07 1012.30 1012.47 1012.83 1013.07 1013.44 1013.66 1013.64 1013.61 1013.93 1013.90 1013.92 1013.88 1013.93 1013.94
1012.36 1012.39 1011.58 1011.23 1011.20 1010.71 1010.79 1008.72 1009.15 1008.86 1008.71 1008.24 1007.74 1007.23 1006.81 1006.43 1006.02 1005.56 1005.53 1005.57 1005.97 1006.25 1006.48 1006.53 1006.45 1006.55 1006.97 1007.53 1008.30 1008.93 1009.53 1010.42 1010.91 1011.27 1011.71 1012.15 1012.27 1012.77 1013.08 1013.30 1013.45 1013.38 1013.55 1013.57 1013.91 1014.06 1014.15 1014.19 1014.16
1012.31 1011.68 1011.41 1011.15 1010.97 1010.63 1010.30 1008.51 1008.47 1008.31 1007.95 1007.64 1007.33 1006.90 1006.34 1005.97 1005.64 1005.31 1005.04 1005.13 1005.22 1005.57 1005.95 1006.11 1006.13 1006.21 1006.40 1007.02 1007.69 1008.46 1009.20 1009.86 1010.71 1011.10 1011.33 1011.99 1012.29 1012.60 1012.85 1012.97 1012.99 1013.29 1013.33 1013.66 1014.14 1014.20 1014.37 1014.28 1014.39
1011.52 1011.35 1011.15 1010.81 1010.56 1010.17 1009.35 1008.14 1007.84 1007.62 1007.21 1006.79 1006.55 1006.44 1005.98 1005.55 1005.13 1004.82 1004.72 1004.59 1004.71 1004.91 1005.20 1005.55 1005.85 1005.99 1006.32 1006.95 1007.56 1007.89 1009.11 1009.43 1010.16 1010.90 1011.07 1011.79 1012.24 1012.52 1012.89 1012.79 1012.92 1012.94 1013.29 1013.84 1014.12 1014.34 1014.68 1014.84 1014.76
1011.59 1011.38 1010.67 1010.45 1010.29 1009.69 1008.51 1007.29 1006.92 1006.54 1006.18 1005.83 1005.40 1005.39 1005.31 1004.99 1004.62 1004.50 1004.41 1004.31 1004.37 1004.42 1004.52 1004.78 1005.09 1005.64 1006.23 1006.70 1007.13 1007.35 1008.30 1008.91 1009.88 1010.71 1011.08 1011.50 1011.90 1012.39 1012.63 1012.64 1013.04 1013.08 1013.11 1013.94 1013.94 1014.19 1014.77 1014.95 1015.10
1011.24 1010.89 1010.49 1010.06 1009.94 1009.41 1007.95 1006.24 1005.75 1005.34 1004.64 1004.31 1004.22 1004.20 1004.23 1004.22 1004.20 1003.93 1003.93 1003.85 1003.87 1003.92 1003.93 1004.48 1004.71 1005.32 1005.78 1006.19 1006.13 1006.67 1007.70 1008.34 1009.40 1010.29 1010.62 1011.12 1011.61 1011.88 1012.39 1012.41 1012.88 1012.87 1013.32 1013.99 1013.85 1014.44 1014.67 1015.32 1015.49
1010.68 1010.62 1010.26 1010.06 1009.68 1009.03 1007.62 1004.98 1004.29 1004.00 1003.89 1003.32 1003.21 1003.48 1003.56 1003.59 1003.47 1003.40 1003.51 1003.43 1003.32 1003.58 1003.64 1003.96 1004.06 1004.69 1005.50 1005.37 1006.07 1005.77 1007.92 1008.10 1009.40 1010.19 1010.38 1010.79 1011.36 1011.67 1011.93 1012.58 1013.18 1013.18 1013.71 1014.14 1014.19 1014.05 1014.72 1015.18 1015.68
1010.21 1010.52 1010.52 1010.24 1009.66 1008.50 1008.54 1005.18 1004.05 1003.60 1002.76 1002.64 1002.63 1002.90 1003.16 1003.24 1003.42 1003.27 1003.03 1003.08 1002.98 1002.90 1003.03 1003.27 1003.86 1004.32 1004.88 1005.41 1005.45 1006.14 1006.99 1007.51 1008.79 1009.83 1010.08 1010.76 1011.15 1011.56 1012.12 1012.60 1013.44 1013.60 1014.18 1014.50 1014.64 1014.05 1014.73 1015.64 1015.56
1010.52 1010.78 1010.75 1010.40 1009.58 1008.61 1008.09 1007.33 1003.35 1003.54 1002.25 1001.91 1002.06 1002.37 1002.56 1002.61 1002.63 1002.41 1002.41 1002.29 1002.24 1002.64 1002.76 1003.07 1003.50 1003.92 1004.40 1004.85 1005.19 1005.88 1007.05 1007.57 1007.88 1009.71 1010.08 1010.88 1011.71 1011.91 1012.49 1013.21 1013.49 1013.97 1014.61 1015.07 1014.37 1014.49 1015.51 1016.11 1015.80
1011.21 1011.23 1010.73 1010.00 1009.58 1008.17 1006.78 1006.62 1003.31 1002.81 1001.93 1001.59 1001.85 1002.25 1002.42 1002.42 1002.46 1002.36 1002.22 1002.14 1001.85 1001.95 1002.31 1002.71 1003.18 1003.47 1004.07 1004.51 1004.92 1005.65 1006.45 1007.38 1007.66 1009.44 1009.85 1011.45 1012.21 1012.83 1012.51 1013.63 1014.44 1014.22 1015.24 1015.15 1015.17 1015.32 1016.28 1016.52 1016.28
1011.37 1011.59 1010.82 1009.76 1009.34 1007.59 1007.21 1006.11 1003.76 1002.91 1001.75 1001.93 1001.90 1002.08 1002.62 1002.40 1002.12 1002.03 1001.90 1001.63 1001.45 1001.80 1001.99 1002.11 1002.70 1003.21 1003.88 1004.25 1004.63 1005.32 1006.29 1007.07 1007.41 1008.63 1010.05 1011.31 1011.97 1013.23 1012.88 1013.33 1014.08 1015.33 1015.70 1016.28 1015.18 1016.20 1017.17 1017.23 1016.78
1011.76 1012.17 1011.56 1010.38 1009.21 1007.76 1007.41 1005.14 1003.17 1002.61 1001.91 1002.07 1002.22 1002.39 1002.56 1002.49 1002.30 1002.10 1001.84 1001.77 1001.43 1001.19 1001.97 1001.96 1002.27 1002.86 1003.43 1003.74 1003.77 1004.25 1005.84 1006.26 1008.03 1008.80 1009.98 1010.70 1011.46 1012.22 1013.14 1013.92 1014.24 1014.84 1015.71 1015.96 1015.71 1017.05 1017.85 1017.92 1017.77
1011.64 1011.89 1011.96 1011.60 1010.33 1008.94 1006.27 1004.73 1003.91 1002.35 1001.93 1002.07 1002.16 1002.24 1002.66 1002.78 1002.47 1002.15 1001.92 1001.60 1001.57 1001.24 1001.29 1001.73 1001.67 1002.47 1002.67 1003.00 1003.41 1003.93 1005.83 1006.87 1008.17 1009.25 1009.90 1010.42 1011.34 1012.69 1013.60 1013.98 1013.86 1015.17 1015.70 1016.01 1016.79 1017.70 1018.25 1018.25 1018.29
1011.34 1011.78 1011.93 1011.69 1010.22 1007.99 1005.53 1004.29 1002.89 1002.17 1001.80 1001.98 1002.43 1002.69 1002.89 1003.00 1002.70 1002.37 1001.92 1001.52 1001.34 1001.26 1001.12 1001.50 1001.61 1001.96 1001.89 1001.52 1001.69 1003.28 1005.13 1006.67 1007.95 1009.06 1009.45 1010.27 1011.66 1013.01 1013.79 1014.48 1014.37 1015.14 1015.91 1016.86 1017.66 1018.29 1018.53 1018.51 1018.58
1011.52 1011.65 1011.71 1011.77 1010.87 1008.75 1006.01 1003.63 1003.14 1002.57 1002.38 1002.40 1002.46 1002.98 1003.17 1003.34 1003.10 1002.80 1002.02 1001.47 1001.23 1001.28 1000.96 1001.35 1001.53 1001.78 1002.09 1002.08 1002.48 1003.20 1005.04 1006.33 1007.37 1008.53 1009.64 1010.49 1012.20 1013.13 1013.94 1014.30 1014.86 1015.69 1016.89 1017.46 1018.13 1018.58 1018.84 1018.55 1018.95
1011.16 1011.09 1011.32 1011.49 1010.56 1009.42 1007.55 1003.80 1003.31 1002.85 1002.99 1003.17 1003.05 1003.00 1003.41 1003.80 1003.55 1002.94 1002.17 1001.40 1001.03 1001.07 1000.96 1001.11 1001.22 1001.61 1002.32 1001.79 1003.71 1003.70 1005.01 1006.26 1007.29 1008.61 1009.91 1010.96 1012.16 1013.26 1013.37 1014.37 1015.54 1016.08 1017.01 1017.83 1018.55 1019.09 1018.99 1018.96 1019.60
Wind_Speed
6 5 1 0 4 3 4 3 3 4 3 2 7 4 8 8 5 10 4 13 15 16 16 18 22 21 21 19 19 21 22 22 22 21 20 18 19 19 18 16 15 13 11 10 8 7 7 6 6
5 1 1 2 4 6 5 2 6 1 6 10 6 5 4 5 6 7 6 10 15 20 15 17 20 21 21 19 19 20 21 20 20 20 20 19 18 18 17 16 15 13 12 10 8 6 6 5 5
0 3 2 3 3 8 5 3 3 7 8 6 6 4 6 7 16 10 14 7 12 19 16 15 18 19 20 18 18 20 21 21 19 19 19 18 18 17 17 16 14 13 12 10 8 6 5 4 4
1 2 4 4 8 4 3 6 4 9 3 3 8 6 3 13 15 15 11 7 12 15 18 17 17 17 19 18 18 19 20 20 19 18 17 17 17 16 14 13 12 11 10 8 7 6 4 3 3
3 1 3 3 4 3 4 3 5 5 4 6 10 9 12 9 20 11 4 5 11 13 17 18 16 17 18 18 17 17 18 19 18 17 17 16 15 14 13 12 11 10 9 7 5 4 3 3 2
3 0 3 7 4 3 3 6 3 4 5 6 9 13 4 13 19 13 7 2 8 11 13 15 15 16 17 16 16 17 17 17 17 17 16 15 15 13 13 11 9 8 8 7 5 4 3 2 1
2 2 1 3 1 1 2 8 4 4 8 5 15 12 6 16 12 10 9 5 6 9 11 12 12 13 14 14 14 15 16 16 15 15 14 14 14 12 11 9 8 7 6 5 4 3 2 1 1
3 2 5 4 5 5 3 9 5 6 8 13 6 3 9 12 8 7 10 6 4 8 11 12 10 11 10 11 13 15 15 16 14 12 12 12 12 11 10 9 8 7 6 5 3 2 2 2 3
1 2 4 5 5 1 9 10 4 6 7 5 7 13 10 9 6 5 7 9 5 6 7 10 11 8 9 10 9 10 14 13 13 12 10 9 8 10 10 6 8 7 6 5 4 3 3 3 4
1 1 4 0 2 2 6 7 13 7 7 4 10 9 8 6 6 5 3 8 4 4 7 7 10 10 10 8 9 8 9 9 10 10 11 8 6 7 6 6 6 5 5 3 3 4 4 6 3
2 1 3 4 3 4 7 9 5 10 9 8 8 13 13 8 6 4 2 1 7 2 1 8 9 9 10 8 7 5 5 5 6 10 10 9 7 7 6 4 5 5 5 4 4 4 4 4 3
2 3 2 4 4 4 9 5 9 12 12 11 14 12 13 14 12 7 5 3 5 9 7 8 9 10 10 6 7 6 6 6 6 7 10 7 5 7 6 5 4 4 3 3 4 3 4 5 5
2 2 4 8 12 8 10 12 11 11 15 15 11 12 12 16 11 8 5 5 6 8 8 15 11 10 8 7 7 7 7 7 7 7 8 7 7 7 6 5 4 3 3 4 5 4 5 4 3
1 5 9 7 6 5 4 7 3 9 11 12 12 13 14 14 14 11 8 9 9 10 10 13 16 15 11 9 10 7 8 8 8 7 8 9 7 7 6 5 4 4 4 4 4 4 4 4 3
4 9 8 5 2 5 3 10 9 8 9 12 15 14 14 15 15 13 12 10 11 12 12 12 17 17 15 14 11 10 9 8 7 7 8 9 8 7 6 5 4 4 4 6 4 3 1 3 3
6 2 7 8 10 3 5 17 3 11 10 17 16 13 12 15 15 10 10 10 10 11 15 13 13 18 18 15 13 9 8 7 7 7 7 10 9 7 6 5 5 4 3 3 2 2 1 1 0
1 11 14 9 7 10 6 17 6 17 15 15 14 14 12 13 12 12 12 11 9 12 13 14 15 19 18 16 12 10 10 9 7 7 7 9 8 8 7 6 5 4 2 2 3 2 1 1 2
16 17 15 15 8 13 18 23 19 16 17 17 16 14 13 12 14 10 12 14 8 9 13 15 15 16 16 12 9 8 7 8 6 7 7 9 7 9 6 5 5 4 4 4 3 3 4 3 3
13 15 20 18 15 20 20 23 21 19 18 19 18 14 14 14 13 10 10 11 8 9 11 15 16 16 11 11 11 10 10 8 7 7 9 10 9 9 7 6 6 5 6 5 5 5 3 4 2
13 16 18 14 13 19 21 26 24 22 24 23 21 18 15 14 12 11 11 12 9 9 10 13 16 14 12 12 7 5 9 7 7 8 9 10 12 11 8 7 7 8 6 6 5 3 3 3 4
16 15 17 22 19 16 18 20 6 9 16 21 19 18 16 14 13 13 11 11 10 9 11 13 14 15 15 13 9 9 6 7 7 9 9 10 12 11 9 7 5 7 4 4 4 5 2 2 4
17 13 13 13 13 8 8 14 14 14 18 13 16 14 14 14 13 14 13 13 13 11 9 11 12 13 13 16 12 14 10 11 8 7 9 10 12 10 9 9 6 6 5 5 5 6 5 1 2
11 5 8 15 18 18 13 10 4 5 14 15 10 10 10 12 14 15 15 15 15 10 9 9 11 12 13 14 14 12 11 8 11 9 12 9 8 10 10 9 11 9 7 4 9 9 8 4 3
3 7 17 12 8 9 12 14 2 5 6 9 6 4 3 3 9 11 11 11 12 10 10 11 12 11 13 13 16 16 15 13 12 11 9 7 7 6 11 10 7 10 8 8 8 11 9 6 5
11 12 6 4 4 6 3 7 15 13 19 20 15 12 1 4 8 7 9 9 11 10 10 11 14 14 14 16 18 16 15 13 16 15 11 12 9 8 10 11 10 7 7 5 10 10 8 5 7
16 5 5 7 5 7 7 10 3 11 15 12 11 4 1 3 2 5 7 8 11 12 9 13 14 15 15 18 19 13 16 10 11 13 13 10 10 9 11 10 11 10 11 8 10 8 6 7 7
4 7 2 5 11 10 7 7 13 14 12 5 7 7 7 5 5 7 8 7 8 14 9 12 14 15 15 19 18 16 15 14 11 13 12 10 11 11 12 12 15 11 10 10 9 8 8 8 7
13 0 5 4 6 7 6 11 9 12 9 2 5 7 6 4 8 9 10 10 9 10 9 8 13 16 16 16 18 16 16 16 16 14 12 14 13 12 14 14 14 12 11 11 9 8 8 9 7
5 9 7 4 5 6 10 4 2 7 6 7 6 3 4 7 9 11 13 12 11 10 9 6 11 13 13 12 13 17 15 17 17 14 13 14 13 15 14 14 14 14 12 11 10 10 9 11 9
13 14 13 6 5 6 8 14 14 15 10 7 12 12 13 11 12 14 13 14 11 10 10 6 9 13 14 14 13 16 18 15 15 14 14 16 15 14 14 17 15 14 13 11 10 9 10 11 9
Wind_Direction
338 348 323 117 215 268 231 190 289 169 177 6 298 243 294 318 263 289 1 176 126 155 165 165 150 150 146 147 146 138 134 137 140 143 145 146 142 140 138 141 147 153 156 155 153 147 134 125 121
345 325 103 105 224 220 226 198 218 7 320 309 296 247 253 289 321 325 340 183 158 149 170 171 154 151 146 147 145 136 136 138 140 143 145 145 141 141 142 145 150 156 159 158 151 139 130 129 129
41 6 195 160 175 226 243 153 134 318 322 336 336 314 334 358 12 359 337 225 171 153 165 168 155 150 143 147 146 142 140 139 141 144 146 145 143 145 145 149 152 159 161 155 146 136 131 131 134
39 124 104 223 199 215 257 138 343 334 341 40 352 291 27 78 344 326 320 188 177 166 157 157 154 149 144 148 149 146 141 141 143 145 146 146 144 143 146 149 151 159 158 157 148 142 136 133 122
51 106 158 194 219 284 269 273 272 335 331 331 348 330 323 18 358 8 1 165 178 174 153 160 152 148 147 150 149 145 141 141 144 147 148 147 144 142 144 149 150 153 150 152 149 133 129 119 133
100 330 191 225 221 222 255 314 279 358 325 318 349 328 332 3 13 20 18 107 169 169 162 156 151 149 148 148 149 145 144 144 146 148 148 147 142 143 144 146 146 142 148 152 150 149 148 142 170
122 159 143 146 224 240 132 355 33 2 341 317 332 316 320 2 5 33 46 69 139 159 164 155 164 150 142 146 146 146 143 144 146 147 147 147 142 142 140 138 135 135 132 140 155 153 172 207 303
96 90 145 165 192 231 333 339 332 330 316 315 325 317 326 350 358 35 66 58 105 148 169 151 164 158 161 155 147 148 145 143 143 141 142 142 136 134 135 134 137 145 150 166 180 191 238 267 273
152 145 160 166 187 208 350 332 327 303 269 287 280 295 321 335 331 39 76 59 81 123 163 153 149 153 161 163 150 138 141 135 132 136 128 139 162 164 160 131 146 160 169 188 201 244 274 296 259
61 197 165 192 13 330 333 306 316 302 300 256 285 287 319 320 349 349 53 100 84 44 150 159 144 147 160 162 157 155 154 160 159 161 160 167 163 170 176 158 167 182 186 208 260 279 288 250 252
129 90 162 141 359 338 306 297 301 291 281 298 290 309 312 313 324 323 307 91 134 127 165 156 141 144 173 157 159 160 163 163 165 166 163 165 166 174 187 177 185 201 195 223 224 235 243 241 261
247 114 165 318 299 283 280 282 277 277 276 288 290 299 297 305 310 298 289 238 204 177 151 155 149 150 169 166 171 169 175 178 178 177 167 161 177 182 187 197 197 211 218 255 244 239 249 251 262
124 338 290 301 288 268 269 247 256 260 269 282 286 290 282 299 291 285 258 241 226 216 186 164 154 158 153 151 165 175 191 185 182 180 178 182 186 188 194 197 209 221 232 238 242 247 253 255 296
223 273 291 286 277 263 255 274 242 243 262 290 285 285 279 279 282 288 245 230 219 221 206 183 168 162 159 161 161 170 197 181 183 189 186 193 190 190 194 194 208 225 234 241 251 258 277 278 184
295 301 312 205 287 295 275 262 224 261 316 296 303 298 288 264 274 265 262 240 222 218 210 200 177 168 164 169 168 177 186 193 188 190 191 195 191 191 190 198 206 225 237 251 249 267 169 157 171
305 258 311 319 302 237 293 281 286 279 299 296 295 297 296 279 267 272 270 263 229 220 217 208 187 176 171 175 171 170 164 188 203 193 187 193 185 187 182 194 213 221 242 240 228 169 152 137 47
263 306 308 310 285 293 256 291 286 294 291 287 286 290 294 295 267 270 276 269 253 216 215 216 207 192 183 174 166 165 164 175 192 195 184 188 177 179 192 196 203 204 197 164 189 133 324 334 343
310 304 296 293 301 283 283 278 284 279 279 279 280 279 275 275 277 290 283 276 272 225 214 216 207 199 185 176 160 144 168 168 179 199 185 171 180 187 202 200 188 167 149 152 154 90 55 11 352
284 284 286 291 291 292 292 288 286 279 275 268 267 256 261 259 268 278 277 277 284 256 213 207 196 193 174 180 170 162 177 165 173 189 179 177 180 193 194 176 167 152 150 177 146 122 84 35 331
272 278 285 290 292 296 291 285 285 270 260 261 260 257 242 245 247 252 260 273 264 269 238 210 193 182 183 195 177 168 161 167 167 188 175 179 183 175 192 168 173 161 156 157 142 169 137 69 21
272 272 287 299 307 290 288 286 271 281 261 261 258 251 251 246 236 241 247 253 273 245 231 224 205 188 187 173 163 99 142 107 163 187 167 172 181 179 173 165 161 134 147 136 144 121 156 168 49
281 280 296 301 310 307 347 292 285 288 280 274 263 257 250 248 242 255 252 254 258 256 244 230 216 199 193 179 159 154 168 159 169 177 164 168 175 163 147 136 135 116 114 129 104 95 91 88 172
295 312 297 297 288 290 248 258 313 272 280 294 287 261 252 247 234 231 241 244 247 251 247 235 221 207 183 180 171 169 182 171 144 157 147 127 143 140 130 136 129 110 88 92 108 89 74 72 61
2 327 304 292 270 254 258 225 317 285 265 303 305 327 359 239 236 245 251 250 246 244 219 216 204 190 185 172 176 175 163 160 139 148 125 135 131 111 107 105 98 111 118 113 89 82 83 77 82
328 316 296 258 201 260 44 264 252 273 273 292 296 309 305 249 252 252 242 239 257 246 223 200 205 194 182 179 184 177 154 155 149 150 153 148 133 146 134 135 119 100 89 106 92 78 78 77 79
299 247 265 288 263 297 287 254 249 262 280 297 298 319 101 142 348 291 287 274 268 271 214 211 196 197 187 186 185 164 154 159 160 159 159 155 152 146 132 127 107 102 112 100 88 96 99 85 78
161 219 249 267 251 274 231 247 270 267 281 0 26 118 102 61 7 328 313 306 294 282 246 218 192 201 191 194 178 162 156 152 167 162 156 148 133 139 142 135 126 126 117 100 101 108 102 91 76
233 266 225 212 271 270 250 270 265 283 307 291 69 51 57 7 344 336 329 316 317 293 280 219 211 203 193 180 174 153 156 154 163 156 142 134 134 137 142 139 115 108 103 105 102 111 105 95 75
196 228 218 288 263 281 301 264 206 278 309 308 287 288 329 345 338 325 320 316 307 305 301 230 218 190 196 180 172 153 158 163 157 148 140 129 129 133 129 114 109 111 114 111 108 103 107 89 77
262 257 238 237 198 231 282 277 270 277 305 322 315 314 320 325 321 312 303 302 297 305 301 255 207 182 190 152 179 157 158 156 150 140 129 126 130 138 128 127 123 117 113 121 113 106 89 85 79